CZ-2C R/B

Satellite information

Favourite Embed

Satellite Type and Status

ROCKET BODYIN ORBIT

Key statistics

Satellite CZ-2C R/B at a glance.

Uptime

4479

Days in orbit

Revolutions

≈ 14.6

Per day

Orbit

SSO

Sun Synchronous Orbit

Inclination

98.3

Latest

Satellite identification and parameters

Extended collection of information and parameters for CZ-2C R/B.

Object identification

Identified? True

Debris? False

Object name: CZ-2C R/B

International designator: 2013-035B

Object number (NORAD): 39203

Object ID (CCSDS): 39203

Country: PEOPLES REPUBLIC OF CHINA (PRC)

Current information (Y/N): Y

RCS size: LARGE

Orbital parameters

Period: 98.855 minutes

Inclination: 98.3413 deg

SMA: 7082.039 km

Apoapsis: 739.355 km

Periapsis: 668.454 km

RAAN: 153.1686 deg

Eccentricy: 0.00500567

Argument of periapsis: 162.4808 deg

Mean anomaly: 197.8131 deg

Mean motion: 14.56683654 rev/day

Mean motion (dot): 0.00000675 rev/day2

B* drag term: 0.00015926603 1/REarth

Two-line elements (TLE)

Creation date: Oct. 19, 2025, 2:20 a.m.

Reference frame: TEME

Reference center: EARTH

Epoch: Oct. 18, 2025, 9:08 p.m. UTC

TLE line 0: 0 CZ-2C R/B

TLE line 1: 1 39203U 13035B 25291.88097679 .00000675 00000-0 15927-3 0 9997

TLE line 2: 2 39203 98.3413 153.1686 0050057 162.4808 197.8131 14.56683654651160

Live tracking on map

Real-time ground track for satellite CZ-2C R/B.

In-orbit conjunctions

A list of the most updated potential collisions computed for object CZ-2C R/B.

Target Orbit TCA Probability of collision Miss distance Type
COSMOS 2251 DEB LEO 2025-09-04 21:31:55 0.0004259028 207.0 (m) DEBRIS
IRIDIUM 33 DEB LEO 2025-06-26 20:03:11 0.0005685328 263.0 (m) DEBRIS
CZ-6A DEB SSO 2025-04-16 16:32:48 0.0003177853 147.0 (m) DEBRIS
DMSP 5D-2 F13 DEB SSO 2025-03-02 03:06:33 0.0001178247 296.0 (m) DEBRIS
DELTA 1 DEB SSO 2025-01-27 03:43:30 0.000130066 887.0 (m) DEBRIS

Associated space launch

CZ-2C R/B was lifted into orbit during the mission ‘Long March 2C | Shijian 11-05’, on board a Long March 2 space rocket.

The launch took place on July 15, 2013, 9:27 a.m. from Launch Area 4 (SLS-2 / 603).

For more information about the launch, click the button.

Launch to space Long March 2C | Shijian 11-05
Long March 2C | Shijian 11-05

Agency: N/A

Status: Launch Successful

Launch date: July 15, 2013, 9:27 a.m. UTC

Rocket: Long March 2

Launch pad: Launch Area 4 (SLS-2 / 603)

Location: Jiuquan Satellite Launch Center, People's Republic of China

...

Latest news about this satellite

There are no fresh news available about this satellite. Check back as we update our databases every day.


Newsletter sign-up

Weekly statistics, charts and insights to help you stay on top of the space industry.